Date String (YYYY-MM-DD hh:mm:ss) UTC,Instrument flags,absolute air pressure of the measurement (hPa),sample flow rate (lpm),inlet stack bypass flow (lpm),air temperature of the measurement (°C),ambient temperature measured by the external sensor (°C),aerosol sample conditioner tube jacket temperature (°C),OPC LED temperature (°C),internal box temperature (°C),relative humidity of the measurement (%),span deviation,mass concentration of particles derived from Lorenz-Mie calculation of OPC scattering (μg/m³),mass concentration of particles derived from Lorenz-Mie calculation of OPC scattering (μg/m³),mass concentration of particles derived from Lorenz-Mie calculation of OPC scattering (μg/m³)
DateTimeUTC,F1_M11,P_M11,Q1_M11,Q2_M11,T1_M11,T2_M11,T3_M11,T4_M11,T5_M11,U1_M11,ZSPAN_M11,X0_M11,X2_M11,X1_M11
2023-09-23 01:00:00,SystemResetWarning,0826.0,4.99,000.00,027.8,024.1,000.0,036.2,029.1,14.6,0000.0,0015.10,0004.27,0003.09
2023-09-23 01:01:00,SystemResetWarning,0826.0,5.00,000.00,027.7,024.5,000.0,036.2,029.2,14.6,0000.0,0015.50,0004.28,0003.10
2023-09-23 01:02:00,SystemResetWarning,0826.0,5.01,000.00,027.7,024.9,000.0,036.2,029.2,14.8,0000.0,0015.11,0004.21,0003.09
2023-09-23 01:03:00,SystemResetWarning,0826.0,5.00,000.00,027.8,025.3,000.0,036.2,029.3,14.6,0000.0,0015.12,0004.18,0003.09
2023-09-23 01:04:00,SystemResetWarning,0826.0,5.00,000.00,027.8,025.7,000.0,036.2,029.4,14.6,0000.0,0014.72,0004.17,0003.09
2023-09-23 01:05:00,SystemResetWarning,0826.1,5.00,000.00,027.8,026.0,000.0,036.2,029.5,14.3,0000.0,0014.31,0004.10,0003.08
2023-09-23 01:06:00,SystemResetWarning,0826.0,5.00,000.00,027.9,026.3,000.0,036.2,029.6,14.2,0000.0,0013.88,0004.08,0003.07
2023-09-23 01:07:00,SystemResetWarning,0826.1,5.00,000.00,027.9,026.5,000.0,036.2,029.6,14.1,0000.0,0014.74,0004.11,0003.06
2023-09-23 01:08:00,SystemResetWarning,0826.1,4.99,000.00,027.9,026.7,000.0,036.2,029.7,13.8,0000.0,0014.31,0004.10,0003.07
2023-09-23 01:09:00,SystemResetWarning,0826.1,5.00,000.00,028.0,026.9,000.0,036.2,029.8,13.8,0000.0,0014.36,0004.10,0003.08
2023-09-23 01:10:00,SystemResetWarning,0826.2,5.00,000.00,028.1,027.0,000.0,036.3,029.8,13.6,0000.0,0014.43,0004.12,0003.09
2023-09-23 01:11:00,SystemResetWarning,0826.2,4.99,000.00,028.1,027.2,000.0,036.3,029.9,13.5,0000.0,0014.27,0004.13,0003.11
2023-09-23 01:12:00,SystemResetWarning,0826.2,4.99,000.00,028.2,027.2,000.0,036.3,029.9,13.6,0000.0,0014.38,0004.18,0003.11
2023-09-23 01:13:00,SystemResetWarning,0826.2,5.00,000.00,028.1,025.7,000.0,036.3,029.6,13.6,0000.0,0014.06,0004.31,0003.12
2023-09-23 01:14:00,SystemResetWarning,0826.2,5.00,000.00,028.0,024.6,000.0,036.2,029.4,13.5,0000.0,0014.78,0004.36,0003.12
2023-09-23 01:15:00,SystemResetWarning,0826.2,5.00,000.00,027.9,024.6,000.0,036.2,029.4,13.5,0000.0,0016.35,0004.37,0003.11
2023-09-23 01:16:00,SystemResetWarning,0826.2,5.01,000.00,027.9,024.8,000.0,036.2,029.3,13.5,0000.0,0017.86,0004.40,0003.11
2023-09-23 01:17:00,SystemResetWarning,0826.2,4.99,000.00,027.9,025.2,000.0,036.2,029.4,13.5,0000.0,0019.73,0004.41,0003.11
2023-09-23 01:18:00,SystemResetWarning,0826.3,4.99,000.00,027.9,025.5,000.0,036.2,029.5,13.4,0000.0,0019.89,0004.40,0003.10
2023-09-23 01:19:00,SystemResetWarning,0826.3,5.00,000.00,027.9,025.9,000.0,036.2,029.5,13.6,0000.0,0020.20,0004.37,0003.10
2023-09-23 01:20:00,SystemResetWarning,0826.4,5.02,000.00,027.9,026.2,000.0,036.2,029.6,13.6,0000.0,0019.94,0004.31,0003.09
2023-09-23 01:21:00,SystemResetWarning,0826.4,5.00,000.00,028.0,026.4,000.0,036.3,029.7,13.9,0000.0,0019.58,0004.27,0003.09
2023-09-23 01:22:00,SystemResetWarning,0826.4,5.00,000.00,028.0,026.6,000.0,036.3,029.7,14.7,0000.0,0019.31,0004.27,0003.09
2023-09-23 01:23:00,SystemResetWarning,0826.4,5.00,000.00,028.1,026.8,000.0,036.3,029.8,14.6,0000.0,0019.44,0004.27,0003.09
2023-09-23 01:24:00,SystemResetWarning,0826.4,4.99,000.00,028.1,027.0,000.0,036.3,029.9,14.3,0000.0,0020.06,0004.20,0003.09
2023-09-23 01:25:00,SystemResetWarning,0826.4,4.99,000.00,028.2,027.1,000.0,036.3,029.9,14.1,0000.0,0019.14,0004.16,0003.09
2023-09-23 01:26:00,SystemResetWarning,0826.4,4.99,000.00,028.2,027.2,000.0,036.4,030.0,13.9,0000.0,0017.45,0004.13,0003.10
2023-09-23 01:27:00,SystemResetWarning,0826.4,5.00,000.00,028.2,027.2,000.0,036.4,030.0,13.8,0000.0,0015.89,0004.09,0003.11
2023-09-23 01:28:00,SystemResetWarning,0826.4,5.00,000.00,028.2,025.7,000.0,036.4,029.6,13.7,0000.0,0014.04,0004.08,0003.13
2023-09-23 01:29:00,SystemResetWarning,0826.4,5.00,000.00,028.1,024.6,000.0,036.3,029.4,13.7,0000.0,0013.65,0004.10,0003.14
2023-09-23 01:30:00,SystemResetWarning,0826.3,5.01,000.00,028.0,024.6,000.0,036.3,029.3,13.6,0000.0,0013.26,0004.20,0003.16
2023-09-23 01:31:00,SystemResetWarning,0826.4,5.01,000.00,027.9,024.9,000.0,036.3,029.3,13.6,0000.0,0013.31,0004.23,0003.17
2023-09-23 01:32:00,SystemResetWarning,0826.4,5.00,000.00,027.9,025.3,000.0,036.3,029.4,13.7,0000.0,0013.44,0004.28,0003.18
2023-09-23 01:33:00,SystemResetWarning,0826.5,5.00,000.00,027.9,025.6,000.0,036.3,029.5,13.8,0000.0,0013.92,0004.32,0003.19
2023-09-23 01:34:00,SystemResetWarning,0826.6,5.00,000.00,027.9,025.9,000.0,036.3,029.5,13.7,0000.0,0013.57,0004.36,0003.20
2023-09-23 01:35:00,SystemResetWarning,0826.6,5.00,000.00,028.0,026.2,000.0,036.3,029.6,13.6,0000.0,0012.68,0004.37,0003.21
2023-09-23 01:36:00,SystemResetWarning,0826.6,5.00,000.00,028.0,026.5,000.0,036.3,029.7,13.7,0000.0,0012.08,0004.36,0003.21
2023-09-23 01:37:00,SystemResetWarning,0826.6,5.00,000.00,028.1,026.7,000.0,036.3,029.7,14.1,0000.0,0012.69,0004.38,0003.22
2023-09-23 01:38:00,SystemResetWarning,0826.7,5.00,000.00,028.1,026.8,000.0,036.4,029.8,14.4,0000.0,0013.01,0004.46,0003.23
2023-09-23 01:39:00,SystemResetWarning,0826.7,5.00,000.00,028.1,027.0,000.0,036.4,029.9,15.1,0000.0,0014.60,0004.49,0003.24
2023-09-23 01:40:00,SystemResetWarning,0826.7,4.99,000.00,028.2,027.1,000.0,036.4,030.0,15.0,0000.0,0014.14,0004.47,0003.24
2023-09-23 01:41:00,SystemResetWarning,0826.8,5.00,000.00,028.2,027.2,000.0,036.4,030.0,14.3,0000.0,0014.41,0004.44,0003.25
2023-09-23 01:42:00,SystemResetWarning,0826.8,4.99,000.00,028.3,027.1,000.0,036.4,030.0,14.5,0000.0,0015.58,0004.46,0003.24
2023-09-23 01:43:00,SystemResetWarning,0826.7,5.00,000.00,028.2,025.5,000.0,036.4,029.6,14.6,0000.0,0015.53,0004.47,0003.25
2023-09-23 01:44:00,SystemResetWarning,0826.8,5.00,000.00,028.1,024.5,000.0,036.3,029.5,14.6,0000.0,0014.68,0004.43,0003.26
2023-09-23 01:45:00,SystemResetWarning,0826.8,5.01,000.00,028.0,024.6,000.0,036.3,029.4,14.8,0000.0,0014.60,0004.41,0003.26
2023-09-23 01:46:00,SystemResetWarning,0826.8,5.01,000.00,027.9,024.9,000.0,036.3,029.4,15.5,0000.0,0015.07,0004.40,0003.25
2023-09-23 01:47:00,SystemResetWarning,0826.8,5.00,000.00,027.9,025.2,000.0,036.3,029.4,14.8,0000.0,0015.33,0004.40,0003.24
2023-09-23 01:48:00,SystemResetWarning,0826.9,5.00,000.00,027.9,025.6,000.0,036.3,029.5,14.7,0000.0,0015.18,0004.38,0003.23
2023-09-23 01:49:00,SystemResetWarning,0826.9,5.00,000.00,028.0,025.9,000.0,036.3,029.6,14.9,0000.0,0014.72,0004.32,0003.23
2023-09-23 01:50:00,SystemResetWarning,0826.9,5.00,000.00,028.0,026.2,000.0,036.3,029.6,14.7,0000.0,0014.54,0004.28,0003.23
2023-09-23 01:51:00,SystemResetWarning,0826.9,5.00,000.00,028.0,026.5,000.0,036.3,029.7,15.3,0000.0,0014.33,0004.36,0003.22
2023-09-23 01:52:00,SystemResetWarning,0826.9,5.00,000.00,028.1,026.7,000.0,036.4,029.8,15.8,0000.0,0014.13,0004.29,0003.21
2023-09-23 01:53:00,SystemResetWarning,0826.9,5.01,000.00,028.1,026.9,000.0,036.4,029.8,15.5,0000.0,0013.09,0004.25,0003.21
2023-09-23 01:54:00,SystemResetWarning,0827.0,5.00,000.00,028.2,027.0,000.0,036.4,029.9,15.8,0000.0,0013.20,0004.25,0003.21
2023-09-23 01:55:00,SystemResetWarning,0826.9,5.00,000.00,028.2,027.1,000.0,036.4,029.9,15.8,0000.0,0012.89,0004.25,0003.21
2023-09-23 01:56:00,SystemResetWarning,0827.0,5.00,000.00,028.2,027.2,000.0,036.4,030.0,15.4,0000.0,0012.41,0004.23,0003.21
2023-09-23 01:57:00,SystemResetWarning,0827.0,5.00,000.00,028.3,027.3,000.0,036.5,030.1,15.3,0000.0,0012.46,0004.18,0003.21
2023-09-23 01:58:00,SystemResetWarning,0826.9,5.00,000.00,028.3,027.4,000.0,036.5,030.1,15.2,0000.0,0012.39,0004.21,0003.21
2023-09-23 01:59:00,SystemResetWarning,0827.0,4.99,000.00,028.4,027.3,000.0,036.5,030.1,14.9,0000.0,0012.45,0004.26,0003.23
